Time,TemperatureF,DewpointF,PressureIn,WindDirection,WindDirectionDegrees,WindSpeedMPH,WindSpeedGustMPH,Humidity,HourlyPrecipIn,Conditions,Clouds,dailyrainin,SoftwareType,DateUTC
2013-07-08 06:58:00,74.7,74.8,30.00,NE,56,0.0,8.7,100,0.00,,,2.24,VWS V14.01,2013-07-08 10:58:00,
2013-07-08 06:59:00,74.7,74.8,30.00,NE,56,0.0,8.7,100,0.00,,,2.24,VWS V14.01,2013-07-08 10:59:00,
2013-07-08 07:25:00,74.9,74.9,30.06,East,92,0.0,0.0,100,0.00,,,2.24,VWS V14.01,2013-07-08 11:25:00,
2013-07-08 07:29:00,75.1,75.1,30.06,East,84,0.0,3.1,100,0.00,,,2.24,VWS V14.01,2013-07-08 11:29:00,
2013-07-08 07:31:00,75.1,75.1,30.06,ENE,61,0.0,4.0,100,0.00,,,2.24,VWS V14.01,2013-07-08 11:31:00,
2013-07-08 07:36:00,75.3,75.3,30.06,ENE,69,0.0,0.0,100,0.00,,,2.24,VWS V14.01,2013-07-08 11:36:00,
2013-07-08 07:41:00,75.5,75.5,30.06,NE,51,0.0,0.0,100,0.00,,,2.24,VWS V14.01,2013-07-08 11:41:00,
2013-07-08 07:46:00,75.5,75.5,30.06,East,81,3.6,4.0,100,0.00,,,2.24,VWS V14.01,2013-07-08 11:46:00,
2013-07-08 07:51:00,75.6,75.7,30.06,ENE,64,0.0,3.6,100,0.00,,,2.24,VWS V14.01,2013-07-08 11:51:00,
2013-07-08 07:56:00,75.8,75.8,30.06,ENE,69,0.0,0.0,100,0.00,,,2.24,VWS V14.01,2013-07-08 11:56:00,
2013-07-08 08:01:00,76.2,76.2,30.06,East,83,0.0,0.0,100,0.00,,,2.24,VWS V14.01,2013-07-08 12:01:00,
2013-07-08 08:06:00,76.4,76.4,30.06,ENE,74,3.1,3.1,100,0.00,,,2.24,VWS V14.01,2013-07-08 12:06:00,
2013-07-08 08:11:00,76.5,76.6,30.06,ENE,66,3.1,3.6,100,0.00,,,2.24,VWS V14.01,2013-07-08 12:11:00,
2013-07-08 08:16:00,76.9,76.9,30.09,East,97,2.7,4.0,100,0.00,,,2.24,VWS V14.01,2013-07-08 12:16:00,
2013-07-08 08:21:00,77.3,77.3,30.09,ESE,105,0.0,3.1,100,0.00,,,2.24,VWS V14.01,2013-07-08 12:21:00,
2013-07-08 13:50:00,90.2,71.6,30.09,ENE,59,4.9,4.9,54,0.00,,,2.24,VWS V14.01,2013-07-08 17:50:00,
2013-07-08 13:55:00,90.2,71.6,30.09,East,90,0.0,4.9,54,0.00,,,2.24,VWS V14.01,2013-07-08 17:55:00,
2013-07-08 14:00:00,90.0,71.4,30.09,ESE,111,4.0,5.8,54,0.00,,,2.24,VWS V14.01,2013-07-08 18:00:00,
2013-07-08 14:05:00,90.0,71.4,30.09,NNE,24,9.6,10.5,54,0.00,,,2.24,VWS V14.01,2013-07-08 18:05:00,
2013-07-08 14:10:00,89.9,71.3,30.09,NNE,24,4.0,7.6,54,0.00,,,2.24,VWS V14.01,2013-07-08 18:10:00,
2013-07-08 14:15:00,89.5,70.9,30.09,ESE,110,0.0,4.0,54,0.00,,,2.24,VWS V14.01,2013-07-08 18:15:00,
2013-07-08 14:20:00,89.1,70.6,30.09,SSE,155,3.1,4.0,54,0.00,,,2.24,VWS V14.01,2013-07-08 18:20:00,
2013-07-08 14:25:00,89.1,74.2,30.09,SSE,159,3.1,5.4,62,0.00,,,2.24,VWS V14.01,2013-07-08 18:25:00,
2013-07-08 14:30:00,89.5,70.9,30.09,ESE,103,2.7,4.9,54,0.00,,,2.24,VWS V14.01,2013-07-08 18:30:00,
2013-07-08 14:35:00,89.9,71.3,30.09,East,90,6.7,6.7,54,0.00,,,2.24,VWS V14.01,2013-07-08 18:35:00,
2013-07-08 14:40:00,90.2,71.6,30.09,SSE,150,4.0,6.3,54,0.00,,,2.24,VWS V14.01,2013-07-08 18:40:00,
2013-07-08 14:45:00,90.6,70.0,30.06,SSE,148,5.4,5.4,51,0.00,,,2.24,VWS V14.01,2013-07-08 18:45:00,
2013-07-08 14:50:00,90.8,70.2,30.06,East,81,4.0,5.8,51,0.00,,,2.24,VWS V14.01,2013-07-08 18:50:00,